Location: Bruderhein
(53.8035°N, 112.9265°W)
Time: 03:15:30
(UTC+00:00)

STRAND 1 - Pass Details

Date: 02 April 2023
Orbit: 767 x 779 km, 98.4° (Epoch: 31 May)

Event Time Altitude Azimuth Distance (km) Brightness Sun altitude
Rises 10:59:45 0° 99° (E) 3,252 ? -17.5°
Reaches altitude 10° 11:03:20 10° 73° (ENE) 2,326 ? -17.0°
Maximum altitude 11:05:35 13° 46° (NE) 2,121 ? -16.8°
Drops below altitude 10° 11:07:50 10° 20° (NNE) 2,328 ? -16.5°
Sets 11:11:24 0° 354° (N) 3,258 ? -16.1°
